timestamp,wind_dir_avg,wind_spd_avg,wind_spd_max_dir,wind_spd_gust,battery_voltage,lat,long
2022-10-06 00:04:00+00:00,280.0,4.23,279.0,4.55,12.57,47.59359,-54.27349
2022-10-06 00:14:00+00:00,274.0,3.09,279.0,3.53,12.49,47.59359,-54.27349
2022-10-06 00:24:00+00:00,255.0,3.41,256.0,3.81,12.49,47.59359,-54.27349
2022-10-06 00:34:00+00:00,244.0,3.16,243.0,3.5,12.49,47.59359,-54.27349
2022-10-06 00:44:00+00:00,269.0,3.1,268.0,3.63,12.49,47.59359,-54.27349
2022-10-06 00:54:00+00:00,278.0,3.69,280.0,3.92,12.49,47.59359,-54.27349
2022-10-06 01:04:00+00:00,237.0,3.72,239.0,4.13,12.49,47.59359,-54.27349
2022-10-06 01:14:00+00:00,251.0,3.77,251.0,4.04,12.49,47.59359,-54.27349
2022-10-06 01:24:00+00:00,256.0,3.73,249.0,4.2,12.49,47.59359,-54.27349
2022-10-06 01:34:00+00:00,248.0,2.94,249.0,3.27,12.49,47.59359,-54.27349
2022-10-06 01:44:00+00:00,251.0,2.31,251.0,2.54,12.49,47.59359,-54.27349
2022-10-06 01:54:00+00:00,267.0,1.42,262.0,1.68,12.49,47.59359,-54.27349
2022-10-06 02:04:00+00:00,264.0,2.06,273.0,2.34,12.49,47.59359,-54.27349
2022-10-06 02:14:00+00:00,262.0,3.1,262.0,3.53,12.49,47.59359,-54.27349
2022-10-06 02:24:00+00:00,266.0,2.83,266.0,3.21,12.49,47.59359,-54.27349
2022-10-06 02:34:00+00:00,248.0,3.15,247.0,3.75,12.49,47.59359,-54.27349
2022-10-06 02:44:00+00:00,240.0,2.73,243.0,2.88,12.49,47.59359,-54.27349
2022-10-06 02:54:00+00:00,240.0,3.08,245.0,3.43,12.49,47.59359,-54.27349
2022-10-06 03:04:00+00:00,251.0,3.31,253.0,3.67,12.49,47.59359,-54.27349
2022-10-06 03:14:00+00:00,252.0,3.59,254.0,4.06,12.49,47.59359,-54.27349
2022-10-06 03:24:00+00:00,273.0,2.93,277.0,3.29,12.49,47.59359,-54.27349
2022-10-06 03:34:00+00:00,276.0,2.0,278.0,2.36,12.49,47.59359,-54.27349
2022-10-06 03:44:00+00:00,273.0,1.81,274.0,1.99,12.49,47.59359,-54.27349
2022-10-06 03:54:00+00:00,268.0,1.74,262.0,2.03,12.49,47.59359,-54.27349
2022-10-06 04:04:00+00:00,300.0,1.83,299.0,2.12,12.49,47.59359,-54.27349
2022-10-06 04:14:01+00:00,357.0,1.04,359.0,1.26,12.41,47.59359,-54.27349
2022-10-06 04:24:01+00:00,282.0,0.84,278.0,1.16,12.41,47.59359,-54.27349
2022-10-06 04:34:01+00:00,234.0,1.46,232.0,1.96,12.41,47.59359,-54.27349
2022-10-06 04:44:01+00:00,229.0,0.34,234.0,0.69,12.41,47.59359,-54.27349
2022-10-06 04:54:01+00:00,242.0,1.3,239.0,1.52,12.41,47.59359,-54.27349
2022-10-06 05:04:01+00:00,256.0,1.01,246.0,1.51,12.41,47.59359,-54.27349
2022-10-06 05:14:00+00:00,66.0,1.04,57.0,1.55,12.41,47.59359,-54.27349
2022-10-06 05:24:00+00:00,13.0,1.75,19.0,1.98,12.41,47.59359,-54.27349
2022-10-06 05:34:00+00:00,0.0,2.14,3.0,2.53,12.41,47.59359,-54.27349
2022-10-06 05:44:00+00:00,16.0,1.01,22.0,1.36,12.41,47.59359,-54.27349
2022-10-06 05:54:00+00:00,31.0,1.23,35.0,1.49,12.41,47.59359,-54.27349
2022-10-06 06:04:00+00:00,54.0,1.27,47.0,1.68,12.41,47.59359,-54.27349
2022-10-06 06:14:01+00:00,76.0,0.96,81.0,1.2,12.41,47.59359,-54.27349
2022-10-06 06:24:01+00:00,35.0,0.69,52.0,1.06,12.41,47.59359,-54.27349
2022-10-06 06:34:01+00:00,25.0,1.89,22.0,2.19,12.41,47.59359,-54.27349
2022-10-06 06:44:01+00:00,45.0,1.9,49.0,2.22,12.41,47.59359,-54.27349
2022-10-06 06:54:01+00:00,49.0,1.8,46.0,2.06,12.41,47.59359,-54.27349
2022-10-06 07:04:01+00:00,38.0,2.57,37.0,3.17,12.41,47.59359,-54.27349
2022-10-06 07:14:01+00:00,23.0,1.62,16.0,1.86,12.41,47.59359,-54.27349
2022-10-06 07:24:01+00:00,54.0,2.05,53.0,2.47,12.41,47.59359,-54.27349
2022-10-06 07:34:01+00:00,35.0,2.01,39.0,2.33,12.41,47.59359,-54.27349
2022-10-06 07:44:01+00:00,11.0,2.52,11.0,2.88,12.41,47.59359,-54.27349
2022-10-06 07:54:01+00:00,25.0,2.25,26.0,2.54,12.41,47.59359,-54.27349
2022-10-06 08:04:01+00:00,27.0,1.76,39.0,2.03,12.41,47.59359,-54.27349
2022-10-06 08:14:01+00:00,46.0,2.05,47.0,2.33,12.33,47.59359,-54.27349
2022-10-06 08:24:01+00:00,45.0,2.7,46.0,3.1,12.33,47.59359,-54.27349
2022-10-06 08:34:01+00:00,39.0,3.05,43.0,3.53,12.33,47.59359,-54.27349
2022-10-06 08:44:01+00:00,16.0,2.43,23.0,3.16,12.33,47.59359,-54.27349
2022-10-06 08:54:01+00:00,32.0,2.64,33.0,2.92,12.33,47.59359,-54.27349
2022-10-06 09:04:01+00:00,34.0,2.14,28.0,2.45,12.33,47.59359,-54.27349
2022-10-06 09:14:01+00:00,18.0,2.37,11.0,2.8,12.33,47.59359,-54.27349
2022-10-06 09:24:01+00:00,23.0,2.2,27.0,2.4,12.33,47.59359,-54.27349
2022-10-06 09:34:01+00:00,4.0,3.33,8.0,3.73,12.33,47.59359,-54.27349
2022-10-06 09:44:01+00:00,24.0,3.1,27.0,3.51,12.33,47.59359,-54.27349
2022-10-06 09:54:01+00:00,19.0,3.52,19.0,3.83,12.33,47.59359,-54.27349
2022-10-06 10:04:01+00:00,32.0,3.19,37.0,3.56,12.33,47.59359,-54.27349
2022-10-06 10:14:00+00:00,28.0,3.72,26.0,4.15,12.25,47.59359,-54.27349
2022-10-06 10:24:00+00:00,37.0,3.29,23.0,4.14,12.25,47.59359,-54.27349
2022-10-06 10:34:00+00:00,53.0,3.41,49.0,3.64,12.25,47.59359,-54.27349
2022-10-06 10:44:00+00:00,67.0,3.08,67.0,3.48,12.25,47.59359,-54.27349
2022-10-06 10:54:00+00:00,43.0,3.43,44.0,3.81,12.25,47.59359,-54.27349
2022-10-06 11:04:00+00:00,54.0,3.36,63.0,3.74,12.25,47.59359,-54.27349
2022-10-06 11:14:01+00:00,69.0,3.51,71.0,3.79,12.49,47.59359,-54.27349
2022-10-06 11:24:01+00:00,61.0,3.52,56.0,3.99,12.49,47.59359,-54.27349
2022-10-06 11:34:01+00:00,67.0,3.42,68.0,3.75,12.49,47.59359,-54.27349
2022-10-06 11:44:01+00:00,57.0,3.45,56.0,3.77,12.49,47.59359,-54.27349
2022-10-06 11:54:01+00:00,58.0,3.29,53.0,3.68,12.49,47.59359,-54.27349
2022-10-06 12:04:01+00:00,46.0,3.69,47.0,4.13,12.49,47.59359,-54.27349
2022-10-06 12:14:01+00:00,47.0,3.43,52.0,4.18,13.29,47.59359,-54.27349
2022-10-06 12:24:01+00:00,45.0,3.95,44.0,4.31,13.29,47.59359,-54.27349
2022-10-06 12:34:01+00:00,44.0,3.81,42.0,4.18,13.29,47.59359,-54.27349
2022-10-06 12:44:01+00:00,48.0,3.98,50.0,4.55,13.29,47.59359,-54.27349
2022-10-06 12:54:01+00:00,61.0,4.27,51.0,5.29,13.29,47.59359,-54.27349
2022-10-06 13:04:01+00:00,61.0,4.44,61.0,4.82,13.29,47.59359,-54.27349
2022-10-06 13:14:01+00:00,58.0,4.0,55.0,4.42,13.92,47.59359,-54.27349
2022-10-06 13:24:01+00:00,45.0,4.56,42.0,4.85,13.92,47.59359,-54.27349
2022-10-06 13:34:01+00:00,43.0,4.5,43.0,4.85,13.92,47.59359,-54.27349
2022-10-06 13:44:01+00:00,34.0,5.01,35.0,5.46,13.92,47.59359,-54.27349
2022-10-06 13:54:01+00:00,36.0,5.08,36.0,5.61,13.92,47.59359,-54.27349
2022-10-06 14:04:01+00:00,38.0,5.29,38.0,5.78,13.92,47.59359,-54.27349
2022-10-06 14:14:01+00:00,46.0,5.18,46.0,5.74,13.76,47.59359,-54.27349
2022-10-06 14:24:01+00:00,46.0,5.11,45.0,5.9,13.76,47.59359,-54.27349
2022-10-06 14:34:01+00:00,42.0,4.56,39.0,5.23,13.76,47.59359,-54.27349
2022-10-06 14:44:01+00:00,43.0,4.88,46.0,5.29,13.76,47.59359,-54.27349
2022-10-06 14:54:01+00:00,42.0,4.57,40.0,5.18,13.76,47.59359,-54.27349
2022-10-06 15:04:01+00:00,51.0,3.72,54.0,4.46,13.76,47.59359,-54.27349
2022-10-06 15:14:00+00:00,51.0,3.76,48.0,4.2,14.16,47.59359,-54.27349
2022-10-06 15:24:00+00:00,46.0,3.6,45.0,3.89,14.16,47.59359,-54.27349
2022-10-06 15:34:00+00:00,40.0,3.96,39.0,4.24,14.16,47.59359,-54.27349
2022-10-06 15:44:00+00:00,42.0,3.91,44.0,4.26,14.16,47.59359,-54.27349
2022-10-06 15:54:00+00:00,49.0,4.14,56.0,4.59,14.16,47.59359,-54.27349
2022-10-06 16:04:00+00:00,42.0,4.35,40.0,4.71,14.16,47.59359,-54.27349
2022-10-06 16:14:00+00:00,32.0,4.44,31.0,4.8,14.32,47.59359,-54.27349
2022-10-06 16:24:00+00:00,35.0,3.97,34.0,4.37,14.32,47.59359,-54.27349
2022-10-06 16:34:00+00:00,47.0,3.94,47.0,4.35,14.32,47.59359,-54.27349
2022-10-06 16:44:00+00:00,41.0,3.15,45.0,3.5,14.32,47.59359,-54.27349
2022-10-06 16:54:00+00:00,55.0,2.37,60.0,2.77,14.32,47.59359,-54.27349
2022-10-06 17:04:00+00:00,33.0,2.62,33.0,2.8,14.32,47.59359,-54.27349
2022-10-06 17:14:01+00:00,24.0,2.1,29.0,2.31,13.76,47.59359,-54.27349
2022-10-06 17:24:01+00:00,21.0,1.88,20.0,2.1,13.76,47.59359,-54.27349
2022-10-06 17:34:01+00:00,6.0,2.08,12.0,2.7,13.76,47.59359,-54.27349
2022-10-06 17:44:01+00:00,0.0,3.61,0.0,3.79,13.76,47.59359,-54.27349
2022-10-06 17:54:01+00:00,353.0,3.49,356.0,3.75,13.76,47.59359,-54.27349
2022-10-06 18:04:01+00:00,352.0,3.24,353.0,3.42,13.76,47.59359,-54.27349
2022-10-06 18:14:00+00:00,352.0,3.62,353.0,3.76,14.24,47.59359,-54.27349
2022-10-06 18:24:00+00:00,349.0,2.93,349.0,3.16,14.24,47.59359,-54.27349
2022-10-06 18:34:00+00:00,6.0,3.03,4.0,3.49,14.24,47.59359,-54.27349
2022-10-06 18:44:00+00:00,17.0,3.27,14.0,3.55,14.24,47.59359,-54.27349
2022-10-06 18:54:00+00:00,20.0,2.52,20.0,3.05,14.24,47.59359,-54.27349
2022-10-06 19:04:00+00:00,32.0,2.53,31.0,2.74,14.24,47.59359,-54.27349
2022-10-06 20:14:00+00:00,34.0,2.69,32.0,2.83,13.76,47.59359,-54.27349
2022-10-06 20:24:00+00:00,35.0,3.15,35.0,3.52,13.76,47.59359,-54.27349
2022-10-06 20:34:00+00:00,34.0,3.5,36.0,3.74,13.76,47.59359,-54.27349
2022-10-06 20:44:00+00:00,38.0,3.3,37.0,3.5,13.76,47.59359,-54.27349
2022-10-06 20:54:00+00:00,37.0,3.63,39.0,3.85,13.76,47.59359,-54.27349
2022-10-06 21:04:00+00:00,38.0,3.31,37.0,3.5,13.76,47.59359,-54.27349
2022-10-06 21:14:00+00:00,29.0,2.87,30.0,2.97,13.05,47.59359,-54.27349
2022-10-06 21:24:00+00:00,31.0,3.55,32.0,3.67,13.05,47.59359,-54.27349
2022-10-06 21:34:00+00:00,35.0,3.45,36.0,3.63,13.05,47.59359,-54.27349
2022-10-06 21:44:00+00:00,22.0,2.94,25.0,3.26,13.05,47.59359,-54.27349
2022-10-06 21:54:00+00:00,38.0,3.04,38.0,3.2,13.05,47.59359,-54.27349
2022-10-06 22:04:00+00:00,61.0,1.96,57.0,2.4,13.05,47.59359,-54.27349
2022-10-06 22:14:00+00:00,56.0,2.24,57.0,2.66,12.57,47.59359,-54.27349
2022-10-06 22:24:00+00:00,52.0,2.17,48.0,2.56,12.57,47.59359,-54.27349
2022-10-06 22:34:00+00:00,33.0,2.66,34.0,2.99,12.57,47.59359,-54.27349
2022-10-06 22:44:00+00:00,34.0,2.9,35.0,3.14,12.57,47.59359,-54.27349
2022-10-06 22:54:00+00:00,42.0,3.75,47.0,4.07,12.57,47.59359,-54.27349
2022-10-06 23:04:00+00:00,59.0,3.65,58.0,4.18,12.57,47.59359,-54.27349
2022-10-06 23:14:00+00:00,51.0,4.05,52.0,4.32,12.57,47.59359,-54.27349
2022-10-06 23:24:00+00:00,50.0,4.17,52.0,4.45,12.57,47.59359,-54.27349
2022-10-06 23:34:00+00:00,48.0,3.89,49.0,4.22,12.57,47.59359,-54.27349
2022-10-06 23:44:00+00:00,40.0,3.51,43.0,3.81,12.57,47.59359,-54.27349
2022-10-06 23:54:00+00:00,37.0,3.77,37.0,3.95,12.57,47.59359,-54.27349
